COSMOS 1275 DEB

Satellite information

Favourite Embed

Satellite Type and Status

DEBRISIN ORBIT

Key statistics

Satellite COSMOS 1275 DEB at a glance.

Uptime

16217

Days in orbit

Revolutions

≈ 13.7

Per day

Orbit

LEO

Low Earth Orbit

Inclination

83.0

Latest

Satellite identification and parameters

Extended collection of information and parameters for COSMOS 1275 DEB.

Object identification

Identified? True

Debris? True

Object name: COSMOS 1275 DEB

International designator: 1981-053AP

Object number (NORAD): 12695

Object ID (CCSDS): 12695

Country: COMMONWEALTH OF INDEPENDENT STATES (CIS)

Current information (Y/N): Y

RCS size: SMALL

Orbital parameters

Period: 104.795 minutes

Inclination: 83.0093 deg

SMA: 7362.969 km

Apoapsis: 1062.63 km

Periapsis: 907.038 km

RAAN: 72.0656 deg

Eccentricy: 0.01056584

Argument of periapsis: 320.8876 deg

Mean anomaly: 165.1311 deg

Mean motion: 13.7411577 rev/day

Mean motion (dot): 0.00001485 rev/day2

B* drag term: 0.0015029189 1/REarth

Two-line elements (TLE)

Creation date: Oct. 28, 2025, 2:18 a.m.

Reference frame: TEME

Reference center: EARTH

Epoch: Oct. 27, 2025, 8:50 p.m. UTC

TLE line 0: 0 COSMOS 1275 DEB

TLE line 1: 1 12695U 81053AP 25300.86852086 .00001485 00000-0 15029-2 0 9990

TLE line 2: 2 12695 83.0093 72.0656 0105658 320.8876 165.1311 13.74115770197161

Live tracking on map

Real-time ground track for satellite COSMOS 1275 DEB.

In-orbit conjunctions

A list of the most updated potential collisions computed for object COSMOS 1275 DEB.

Target Orbit TCA Probability of collision Miss distance Type
FENGYUN 1C DEB SSO 2025-02-06 05:55:19 0.0001128207 154.0 (m) DEBRIS
SL-8 R/B LEO 2024-11-27 11:36:57 0.0001208286 890.0 (m) ROCKET BODY

Associated space launch

Navigation satellite providing location information for the Tsiklon-B navigation system

COSMOS 1275 DEB was lifted into orbit during the mission ‘Kosmos-3M | Parus 27’, on board a Kosmos-3M space rocket.

The launch took place on June 4, 1981, 3:41 p.m. from 132/2.

For more information about the launch, click the button.

Launch to space Kosmos-3M | Parus 27
Kosmos-3M | Parus 27

Agency: N/A

Status: Launch Successful

Launch date: June 4, 1981, 3:41 p.m. UTC

Rocket: Kosmos-3M

Launch pad: 132/2

Location: Plesetsk Cosmodrome, Russian Federation

...

Latest news about this satellite

There are no fresh news available about this satellite. Check back as we update our databases every day.


Newsletter sign-up

Weekly statistics, charts and insights to help you stay on top of the space industry.